Year,Month,Day,Hour,Minute,Value (Times are PST for insolation in W/m^2)
2015,04,25,00,00,0.00
2015,04,25,00,01,0.00
2015,04,25,00,02,0.00
2015,04,25,00,03,0.00
2015,04,25,00,04,0.00
2015,04,25,00,05,0.00
2015,04,25,00,06,0.00
2015,04,25,00,07,0.00
2015,04,25,00,08,0.00
2015,04,25,00,09,0.00
2015,04,25,00,10,0.00
2015,04,25,00,11,0.00
2015,04,25,00,12,0.00
2015,04,25,00,13,0.00
2015,04,25,00,14,0.00
2015,04,25,00,15,0.00
2015,04,25,00,16,0.00
2015,04,25,00,17,0.00
2015,04,25,00,18,0.00
2015,04,25,00,19,0.00
2015,04,25,00,20,0.00
2015,04,25,00,21,0.00
2015,04,25,00,22,0.00
2015,04,25,00,23,0.00
2015,04,25,00,24,0.00
2015,04,25,00,25,0.00
2015,04,25,00,26,0.00
2015,04,25,00,27,0.00
2015,04,25,00,28,0.00
2015,04,25,00,29,0.00
2015,04,25,00,30,0.00
2015,04,25,00,31,0.00
2015,04,25,00,32,0.00
2015,04,25,00,33,0.00
2015,04,25,00,34,0.00
2015,04,25,00,35,0.00
2015,04,25,00,36,0.00
2015,04,25,00,37,0.00
2015,04,25,00,38,0.00
2015,04,25,00,39,0.00
2015,04,25,00,40,0.00
2015,04,25,00,41,0.00
2015,04,25,00,42,0.00
2015,04,25,00,43,0.00
2015,04,25,00,44,0.00
2015,04,25,00,45,0.00
2015,04,25,00,46,0.00
2015,04,25,00,47,0.00
2015,04,25,00,48,0.00
2015,04,25,00,49,0.00
2015,04,25,00,50,0.00
2015,04,25,00,51,0.00
2015,04,25,00,52,0.00
2015,04,25,00,53,0.00
2015,04,25,00,54,0.00
2015,04,25,00,55,0.00
2015,04,25,00,56,0.00
2015,04,25,00,57,0.00
2015,04,25,00,58,0.00
2015,04,25,00,59,0.00
2015,04,25,01,00,0.00
2015,04,25,01,01,0.00
2015,04,25,01,02,0.00
2015,04,25,01,03,0.00
2015,04,25,01,04,0.00
2015,04,25,01,05,0.00
2015,04,25,01,06,0.00
2015,04,25,01,07,0.00
2015,04,25,01,08,0.00
2015,04,25,01,09,0.00
2015,04,25,01,10,0.00
2015,04,25,01,11,0.00
2015,04,25,01,12,0.00
2015,04,25,01,13,0.00
2015,04,25,01,14,0.00
2015,04,25,01,15,0.00
2015,04,25,01,16,0.00
2015,04,25,01,17,0.00
2015,04,25,01,18,0.00
2015,04,25,01,19,0.00
2015,04,25,01,20,0.00
2015,04,25,01,21,0.00
2015,04,25,01,22,0.00
2015,04,25,01,23,0.00
2015,04,25,01,24,0.00
2015,04,25,01,25,0.00
2015,04,25,01,26,0.00
2015,04,25,01,27,0.00
2015,04,25,01,28,0.00
2015,04,25,01,29,0.00
2015,04,25,01,30,0.00
2015,04,25,01,31,0.00
2015,04,25,01,32,0.00
2015,04,25,01,33,0.00
2015,04,25,01,34,0.00
2015,04,25,01,35,0.00
2015,04,25,01,36,0.00
2015,04,25,01,37,0.00
2015,04,25,01,38,0.00
2015,04,25,01,39,0.00
2015,04,25,01,40,0.00
2015,04,25,01,41,0.00
2015,04,25,01,42,0.00
2015,04,25,01,43,0.00
2015,04,25,01,44,0.00
2015,04,25,01,45,0.00
2015,04,25,01,46,0.00
2015,04,25,01,47,0.00
2015,04,25,01,48,0.00
2015,04,25,01,49,0.00
2015,04,25,01,50,0.00
2015,04,25,01,51,0.00
2015,04,25,01,52,0.00
2015,04,25,01,53,0.00
2015,04,25,01,54,0.00
2015,04,25,01,55,0.00
2015,04,25,01,56,0.00
2015,04,25,01,57,0.00
2015,04,25,01,58,0.00
2015,04,25,01,59,0.00
2015,04,25,02,00,0.00
2015,04,25,02,01,0.00
2015,04,25,02,02,0.00
2015,04,25,02,03,0.00
2015,04,25,02,04,0.00
2015,04,25,02,05,0.00
2015,04,25,02,06,0.00
2015,04,25,02,07,0.00
2015,04,25,02,08,0.00
2015,04,25,02,09,0.00
2015,04,25,02,10,0.00
2015,04,25,02,11,0.00
2015,04,25,02,12,0.00
2015,04,25,02,13,0.00
2015,04,25,02,14,0.00
2015,04,25,02,15,0.00
2015,04,25,02,16,0.00
2015,04,25,02,17,0.00
2015,04,25,02,18,0.00
2015,04,25,02,19,0.00
2015,04,25,02,20,0.00
2015,04,25,02,21,0.00
2015,04,25,02,22,0.00
2015,04,25,02,23,0.00
2015,04,25,02,24,0.00
2015,04,25,02,25,0.00
2015,04,25,02,26,0.00
2015,04,25,02,27,0.00
2015,04,25,02,28,0.00
2015,04,25,02,29,0.00
2015,04,25,02,30,0.00
2015,04,25,02,31,0.00
2015,04,25,02,32,0.00
2015,04,25,02,33,0.00
2015,04,25,02,34,0.00
2015,04,25,02,35,0.00
2015,04,25,02,36,0.00
2015,04,25,02,37,0.00
2015,04,25,02,38,0.00
2015,04,25,02,39,0.00
2015,04,25,02,40,0.00
2015,04,25,02,41,0.00
2015,04,25,02,42,0.00
2015,04,25,02,43,0.00
2015,04,25,02,44,0.00
2015,04,25,02,45,0.00
2015,04,25,02,46,0.00
2015,04,25,02,47,0.00
2015,04,25,02,48,0.00
2015,04,25,02,49,0.00
2015,04,25,02,50,0.00
2015,04,25,02,51,0.00
2015,04,25,02,52,0.00
2015,04,25,02,53,0.00
2015,04,25,02,54,0.00
2015,04,25,02,55,0.00
2015,04,25,02,56,0.00
2015,04,25,02,57,0.00
2015,04,25,02,58,0.00
2015,04,25,02,59,0.00
2015,04,25,03,00,0.00
2015,04,25,03,01,0.00
2015,04,25,03,02,0.00
2015,04,25,03,03,0.00
2015,04,25,03,04,0.00
2015,04,25,03,05,0.00
2015,04,25,03,06,0.00
2015,04,25,03,07,0.00
2015,04,25,03,08,0.00
2015,04,25,03,09,0.00
2015,04,25,03,10,0.00
2015,04,25,03,11,0.00
2015,04,25,03,12,0.00
2015,04,25,03,13,0.00
2015,04,25,03,14,0.00
2015,04,25,03,15,0.00
2015,04,25,03,16,0.00
2015,04,25,03,17,0.00
2015,04,25,03,18,0.00
2015,04,25,03,19,0.00
2015,04,25,03,20,0.00
2015,04,25,03,21,0.00
2015,04,25,03,22,0.00
2015,04,25,03,23,0.00
2015,04,25,03,24,0.00
2015,04,25,03,25,0.00
2015,04,25,03,26,0.00
2015,04,25,03,27,0.00
2015,04,25,03,28,0.00
2015,04,25,03,29,0.00
2015,04,25,03,30,0.00
2015,04,25,03,31,0.00
2015,04,25,03,32,0.00
2015,04,25,03,33,0.00
2015,04,25,03,34,0.00
2015,04,25,03,35,0.00
2015,04,25,03,36,0.00
2015,04,25,03,37,0.00
2015,04,25,03,38,0.00
2015,04,25,03,39,0.00
2015,04,25,03,40,0.00
2015,04,25,03,41,0.00
2015,04,25,03,42,0.00
2015,04,25,03,43,0.00
2015,04,25,03,44,0.00
2015,04,25,03,45,0.00
2015,04,25,03,46,0.00
2015,04,25,03,47,0.00
2015,04,25,03,48,0.00
2015,04,25,03,49,0.00
2015,04,25,03,50,0.00
2015,04,25,03,51,0.00
2015,04,25,03,52,0.00
2015,04,25,03,53,0.00
2015,04,25,03,54,0.00
2015,04,25,03,55,0.00
2015,04,25,03,56,0.00
2015,04,25,03,57,0.00
2015,04,25,03,58,0.00
2015,04,25,03,59,0.00
2015,04,25,04,00,0.00
2015,04,25,04,01,0.00
2015,04,25,04,02,0.00
2015,04,25,04,03,0.00
2015,04,25,04,04,0.00
2015,04,25,04,05,0.00
2015,04,25,04,06,0.00
2015,04,25,04,07,0.00
2015,04,25,04,08,0.00
2015,04,25,04,09,0.00
2015,04,25,04,10,0.00
2015,04,25,04,11,0.00
2015,04,25,04,12,0.00
2015,04,25,04,13,0.00
2015,04,25,04,14,0.00
2015,04,25,04,15,0.00
2015,04,25,04,16,0.00
2015,04,25,04,17,0.00
2015,04,25,04,18,0.00
2015,04,25,04,19,0.00
2015,04,25,04,20,0.00
2015,04,25,04,21,0.00
2015,04,25,04,22,0.00
2015,04,25,04,23,0.00
2015,04,25,04,24,0.00
2015,04,25,04,25,0.00
2015,04,25,04,26,0.00
2015,04,25,04,27,0.00
2015,04,25,04,28,0.00
2015,04,25,04,29,0.00
2015,04,25,04,30,0.00
2015,04,25,04,31,0.00
2015,04,25,04,32,0.00
2015,04,25,04,33,0.00
2015,04,25,04,34,0.00
2015,04,25,04,35,0.00
2015,04,25,04,36,0.00
2015,04,25,04,37,0.00
2015,04,25,04,38,0.00
2015,04,25,04,39,0.00
2015,04,25,04,40,0.00
2015,04,25,04,41,0.00
2015,04,25,04,42,0.00
2015,04,25,04,43,0.00
2015,04,25,04,44,0.00
2015,04,25,04,45,0.00
2015,04,25,04,46,0.00
2015,04,25,04,47,0.00
2015,04,25,04,48,0.00
2015,04,25,04,49,0.00
2015,04,25,04,50,0.00
2015,04,25,04,51,0.00
2015,04,25,04,52,0.00
2015,04,25,04,53,0.00
2015,04,25,04,54,0.00
2015,04,25,04,55,0.00
2015,04,25,04,56,0.00
2015,04,25,04,57,0.00
2015,04,25,04,58,0.00
2015,04,25,04,59,0.00
2015,04,25,05,00,0.00
2015,04,25,05,01,0.00
2015,04,25,05,02,0.00
2015,04,25,05,03,0.00
2015,04,25,05,04,0.00
2015,04,25,05,05,0.00
2015,04,25,05,06,0.00
2015,04,25,05,07,0.00
2015,04,25,05,08,0.00
2015,04,25,05,09,0.00
2015,04,25,05,10,0.00
2015,04,25,05,11,0.00
2015,04,25,05,12,0.00
2015,04,25,05,13,0.00
2015,04,25,05,14,0.00
2015,04,25,05,15,0.00
2015,04,25,05,16,0.00
2015,04,25,05,17,0.00
2015,04,25,05,18,0.00
2015,04,25,05,19,0.00
2015,04,25,05,20,0.00
2015,04,25,05,21,0.00
2015,04,25,05,22,0.00
2015,04,25,05,23,0.00
2015,04,25,05,24,0.00
2015,04,25,05,25,0.00
2015,04,25,05,26,0.00
2015,04,25,05,27,0.00
2015,04,25,05,28,0.00
2015,04,25,05,29,0.00
2015,04,25,05,30,0.00
2015,04,25,05,31,0.00
2015,04,25,05,32,0.00
2015,04,25,05,33,0.00
2015,04,25,05,34,0.00
2015,04,25,05,35,0.00
2015,04,25,05,36,0.00
2015,04,25,05,37,0.00
2015,04,25,05,38,0.00
2015,04,25,05,39,0.00
2015,04,25,05,40,0.00
2015,04,25,05,41,0.00
2015,04,25,05,42,0.00
2015,04,25,05,43,0.00
2015,04,25,05,44,0.00
2015,04,25,05,45,0.00
2015,04,25,05,46,0.00
2015,04,25,05,47,0.00
2015,04,25,05,48,0.00
2015,04,25,05,49,0.00
2015,04,25,05,50,0.00
2015,04,25,05,51,0.00
2015,04,25,05,52,0.00
2015,04,25,05,53,0.00
2015,04,25,05,54,0.00
2015,04,25,05,55,0.00
2015,04,25,05,56,0.00
2015,04,25,05,57,0.00
2015,04,25,05,58,0.00
2015,04,25,05,59,0.00
2015,04,25,06,00,0.00
2015,04,25,06,01,0.00
2015,04,25,06,02,0.00
2015,04,25,06,03,0.00
2015,04,25,06,04,0.00
2015,04,25,06,05,0.00
2015,04,25,06,06,0.00
2015,04,25,06,07,0.00
2015,04,25,06,08,0.00
2015,04,25,06,09,0.00
2015,04,25,06,10,0.00
2015,04,25,06,11,0.00
2015,04,25,06,12,0.00
2015,04,25,06,13,4.80
2015,04,25,06,14,5.00
2015,04,25,06,15,5.00
2015,04,25,06,16,5.00
2015,04,25,06,17,5.00
2015,04,25,06,18,5.00
2015,04,25,06,19,6.80
2015,04,25,06,20,7.00
2015,04,25,06,21,7.50
2015,04,25,06,22,9.00
2015,04,25,06,23,9.00
2015,04,25,06,24,9.00
2015,04,25,06,25,9.00
2015,04,25,06,26,9.00
2015,04,25,06,27,8.80
2015,04,25,06,28,7.00
2015,04,25,06,29,7.00
2015,04,25,06,30,7.00
2015,04,25,06,31,7.00
2015,04,25,06,32,7.00
2015,04,25,06,33,7.00
2015,04,25,06,34,7.00
2015,04,25,06,35,7.00
2015,04,25,06,36,7.00
2015,04,25,06,37,7.00
2015,04,25,06,38,7.00
2015,04,25,06,39,8.50
2015,04,25,06,40,9.00
2015,04,25,06,41,9.00
2015,04,25,06,42,9.00
2015,04,25,06,43,9.00
2015,04,25,06,44,9.00
2015,04,25,06,45,10.20
2015,04,25,06,46,11.00
2015,04,25,06,47,11.00
2015,04,25,06,48,12.00
2015,04,25,06,49,12.40
2015,04,25,06,50,14.00
2015,04,25,06,51,15.00
2015,04,25,06,52,17.20
2015,04,25,06,53,18.70
2015,04,25,06,54,20.70
2015,04,25,06,55,21.20
2015,04,25,06,56,23.40
2015,04,25,06,57,25.40
2015,04,25,06,58,26.00
2015,04,25,06,59,26.00
2015,04,25,07,00,26.00
2015,04,25,07,01,26.00
2015,04,25,07,02,28.00
2015,04,25,07,03,28.00
2015,04,25,07,04,28.00
2015,04,25,07,05,28.00
2015,04,25,07,06,28.00
2015,04,25,07,07,29.50
2015,04,25,07,08,30.00
2015,04,25,07,09,32.00
2015,04,25,07,10,32.20
2015,04,25,07,11,34.50
2015,04,25,07,12,38.00
2015,04,25,07,13,39.00
2015,04,25,07,14,39.00
2015,04,25,07,15,39.90
2015,04,25,07,16,40.00
2015,04,25,07,17,40.00
2015,04,25,07,18,40.70
2015,04,25,07,19,43.00
2015,04,25,07,20,45.20
2015,04,25,07,21,46.00
2015,04,25,07,22,46.00
2015,04,25,07,23,47.00
2015,04,25,07,24,47.00
2015,04,25,07,25,47.00
2015,04,25,07,26,47.00
2015,04,25,07,27,48.20
2015,04,25,07,28,49.00
2015,04,25,07,29,49.00
2015,04,25,07,30,50.90
2015,04,25,07,31,51.00
2015,04,25,07,32,51.70
2015,04,25,07,33,53.50
2015,04,25,07,34,54.00
2015,04,25,07,35,55.50
2015,04,25,07,36,56.00
2015,04,25,07,37,58.10
2015,04,25,07,38,60.50
2015,04,25,07,39,62.40
2015,04,25,07,40,64.90
2015,04,25,07,41,68.30
2015,04,25,07,42,71.20
2015,04,25,07,43,73.80
2015,04,25,07,44,77.30
2015,04,25,07,45,81.70
2015,04,25,07,46,85.40
2015,04,25,07,47,89.40
2015,04,25,07,48,93.50
2015,04,25,07,49,96.50
2015,04,25,07,50,99.70
2015,04,25,07,51,102.30
2015,04,25,07,52,105.50
2015,04,25,07,53,107.70
2015,04,25,07,54,110.00
2015,04,25,07,55,112.20
2015,04,25,07,56,113.70
2015,04,25,07,57,115.70
2015,04,25,07,58,116.00
2015,04,25,07,59,116.00
2015,04,25,08,00,116.70
2015,04,25,08,01,118.00
2015,04,25,08,02,119.90
2015,04,25,08,03,122.50
2015,04,25,08,04,124.80
2015,04,25,08,05,128.20
2015,04,25,08,06,130.50
2015,04,25,08,07,132.70
2015,04,25,08,08,135.40
2015,04,25,08,09,138.20
2015,04,25,08,10,139.00
2015,04,25,08,11,139.00
2015,04,25,08,12,136.70
2015,04,25,08,13,133.60
2015,04,25,08,14,131.30
2015,04,25,08,15,130.00
2015,04,25,08,16,130.00
2015,04,25,08,17,130.00
2015,04,25,08,18,128.30
2015,04,25,08,19,128.00
2015,04,25,08,20,128.40
2015,04,25,08,21,131.50
2015,04,25,08,22,137.40
2015,04,25,08,23,141.00
2015,04,25,08,24,149.90
2015,04,25,08,25,157.30
2015,04,25,08,26,162.20
2015,04,25,08,27,165.90
2015,04,25,08,28,170.00
2015,04,25,08,29,174.90
2015,04,25,08,30,179.80
2015,04,25,08,31,184.00
2015,04,25,08,32,187.60
2015,04,25,08,33,186.10
2015,04,25,08,34,185.80
2015,04,25,08,35,184.30
2015,04,25,08,36,183.00
2015,04,25,08,37,181.80
2015,04,25,08,38,178.80
2015,04,25,08,39,178.00
2015,04,25,08,40,181.00
2015,04,25,08,41,163.90
2015,04,25,08,42,158.60
2015,04,25,08,43,160.30
2015,04,25,08,44,176.90
2015,04,25,08,45,176.90
2015,04,25,08,46,174.00
2015,04,25,08,47,180.40
2015,04,25,08,48,244.40
2015,04,25,08,49,288.00
2015,04,25,08,50,348.00
2015,04,25,08,51,403.80
2015,04,25,08,52,425.10
2015,04,25,08,53,410.40
2015,04,25,08,54,426.80
2015,04,25,08,55,425.50
2015,04,25,08,56,426.30
2015,04,25,08,57,426.90
2015,04,25,08,58,429.00
2015,04,25,08,59,431.20
2015,04,25,09,00,433.70
2015,04,25,09,01,436.20
2015,04,25,09,02,438.20
2015,04,25,09,03,439.70
2015,04,25,09,04,441.00
2015,04,25,09,05,444.00
2015,04,25,09,06,447.50
2015,04,25,09,07,451.40
2015,04,25,09,08,454.00
2015,04,25,09,09,455.90
2015,04,25,09,10,459.00
2015,04,25,09,11,461.40
2015,04,25,09,12,465.20
2015,04,25,09,13,467.40
2015,04,25,09,14,470.60
2015,04,25,09,15,473.30
2015,04,25,09,16,477.30
2015,04,25,09,17,483.90
2015,04,25,09,18,488.40
2015,04,25,09,19,492.50
2015,04,25,09,20,496.10
2015,04,25,09,21,498.70
2015,04,25,09,22,496.70
2015,04,25,09,23,501.70
2015,04,25,09,24,504.70
2015,04,25,09,25,507.00
2015,04,25,09,26,510.40
2015,04,25,09,27,512.70
2015,04,25,09,28,516.40
2015,04,25,09,29,519.30
2015,04,25,09,30,522.40
2015,04,25,09,31,524.70
2015,04,25,09,32,526.50
2015,04,25,09,33,529.40
2015,04,25,09,34,533.20
2015,04,25,09,35,537.40
2015,04,25,09,36,538.20
2015,04,25,09,37,541.30
2015,04,25,09,38,545.70
2015,04,25,09,39,547.50
2015,04,25,09,40,547.40
2015,04,25,09,41,552.20
2015,04,25,09,42,554.90
2015,04,25,09,43,557.00
2015,04,25,09,44,536.80
2015,04,25,09,45,501.90
2015,04,25,09,46,563.50
2015,04,25,09,47,565.20
2015,04,25,09,48,568.90
2015,04,25,09,49,574.30
2015,04,25,09,50,577.30
2015,04,25,09,51,580.90
2015,04,25,09,52,584.00
2015,04,25,09,53,584.50
2015,04,25,09,54,587.40
2015,04,25,09,55,591.20
2015,04,25,09,56,595.40
2015,04,25,09,57,603.30
2015,04,25,09,58,612.00
2015,04,25,09,59,620.00
2015,04,25,10,00,623.00
2015,04,25,10,01,625.30
2015,04,25,10,02,627.50
2015,04,25,10,03,632.40
2015,04,25,10,04,643.20
2015,04,25,10,05,613.60
2015,04,25,10,06,673.20
2015,04,25,10,07,690.00
2015,04,25,10,08,708.10
2015,04,25,10,09,732.00
2015,04,25,10,10,755.00
2015,04,25,10,11,761.00
2015,04,25,10,12,728.20
2015,04,25,10,13,619.00
2015,04,25,10,14,643.60
2015,04,25,10,15,670.00
2015,04,25,10,16,776.70
2015,04,25,10,17,788.70
2015,04,25,10,18,795.20
2015,04,25,10,19,797.70
2015,04,25,10,20,810.30
2015,04,25,10,21,827.60
2015,04,25,10,22,854.00
2015,04,25,10,23,773.30
2015,04,25,10,24,770.60
2015,04,25,10,25,753.30
2015,04,25,10,26,580.00
2015,04,25,10,27,660.40
2015,04,25,10,28,805.00
2015,04,25,10,29,805.00
2015,04,25,10,30,607.30
2015,04,25,10,31,468.60
2015,04,25,10,32,416.20
2015,04,25,10,33,409.40
2015,04,25,10,34,406.20
2015,04,25,10,35,410.00
2015,04,25,10,36,406.20
2015,04,25,10,37,439.60
2015,04,25,10,38,412.80
2015,04,25,10,39,402.60
2015,04,25,10,40,424.00
2015,04,25,10,41,405.50
2015,04,25,10,42,411.40
2015,04,25,10,43,405.20
2015,04,25,10,44,399.00
2015,04,25,10,45,563.40
2015,04,25,10,46,568.60
2015,04,25,10,47,379.40
2015,04,25,10,48,372.30
2015,04,25,10,49,367.70
2015,04,25,10,50,366.00
2015,04,25,10,51,366.70
2015,04,25,10,52,367.00
2015,04,25,10,53,360.00
2015,04,25,10,54,356.20
2015,04,25,10,55,343.00
2015,04,25,10,56,334.30
2015,04,25,10,57,323.80
2015,04,25,10,58,331.10
2015,04,25,10,59,329.70
2015,04,25,11,00,329.60
2015,04,25,11,01,335.60
2015,04,25,11,02,348.00
2015,04,25,11,03,366.30
2015,04,25,11,04,384.60
2015,04,25,11,05,402.90
2015,04,25,11,06,421.20
2015,04,25,11,07,433.60
2015,04,25,11,08,434.00
2015,04,25,11,09,648.40
2015,04,25,11,10,974.00
2015,04,25,11,11,932.00
2015,04,25,11,12,932.00
2015,04,25,11,13,932.00
2015,04,25,11,14,1028.70
2015,04,25,11,15,1026.20
2015,04,25,11,16,1045.90
2015,04,25,11,17,1042.00
2015,04,25,11,18,655.60
2015,04,25,11,19,390.00
2015,04,25,11,20,390.00
2015,04,25,11,21,390.00
2015,04,25,11,22,519.50
2015,04,25,11,23,950.30
2015,04,25,11,24,954.30
2015,04,25,11,25,970.50
2015,04,25,11,26,1002.30
2015,04,25,11,27,952.50
2015,04,25,11,28,960.60
2015,04,25,11,29,1109.00
2015,04,25,11,30,1109.00
2015,04,25,11,31,1109.00
2015,04,25,11,32,717.60
2015,04,25,11,33,470.20
2015,04,25,11,34,421.30
2015,04,25,11,35,420.80
2015,04,25,11,36,466.00
2015,04,25,11,37,466.00
2015,04,25,11,38,466.00
2015,04,25,11,39,466.00
2015,04,25,11,40,483.80
2015,04,25,11,41,501.90
2015,04,25,11,42,517.00
2015,04,25,11,43,517.00
2015,04,25,11,44,517.00
2015,04,25,11,45,517.00
2015,04,25,11,46,801.40
2015,04,25,11,47,991.80
2015,04,25,11,48,929.50
2015,04,25,11,49,919.00
2015,04,25,11,50,919.00
2015,04,25,11,51,919.00
2015,04,25,11,52,919.00
2015,04,25,11,53,926.70
2015,04,25,11,54,922.40
2015,04,25,11,55,914.60
2015,04,25,11,56,856.00
2015,04,25,11,57,852.40
2015,04,25,11,58,832.70
2015,04,25,11,59,841.10
2015,04,25,12,00,836.10
2015,04,25,12,01,833.50
2015,04,25,12,02,831.20
2015,04,25,12,03,830.10
2015,04,25,12,04,830.80
2015,04,25,12,05,829.30
2015,04,25,12,06,829.40
2015,04,25,12,07,832.20
2015,04,25,12,08,833.00
2015,04,25,12,09,833.00
2015,04,25,12,10,831.50
2015,04,25,12,11,835.00
2015,04,25,12,12,836.10
2015,04,25,12,13,838.90
2015,04,25,12,14,838.80
2015,04,25,12,15,841.00
2015,04,25,12,16,843.70
2015,04,25,12,17,844.20
2015,04,25,12,18,846.00
2015,04,25,12,19,846.00
2015,04,25,12,20,846.50
2015,04,25,12,21,848.20
2015,04,25,12,22,850.50
2015,04,25,12,23,853.70
2015,04,25,12,24,856.90
2015,04,25,12,25,866.10
2015,04,25,12,26,873.70
2015,04,25,12,27,888.20
2015,04,25,12,28,891.90
2015,04,25,12,29,902.30
2015,04,25,12,30,910.40
2015,04,25,12,31,918.30
2015,04,25,12,32,923.70
2015,04,25,12,33,896.70
2015,04,25,12,34,847.00
2015,04,25,12,35,847.00
2015,04,25,12,36,847.00
2015,04,25,12,37,899.80
2015,04,25,12,38,909.30
2015,04,25,12,39,912.00
2015,04,25,12,40,912.00
2015,04,25,12,41,913.00
2015,04,25,12,42,917.00
2015,04,25,12,43,927.10
2015,04,25,12,44,930.00
2015,04,25,12,45,925.40
2015,04,25,12,46,920.30
2015,04,25,12,47,916.50
2015,04,25,12,48,911.60
2015,04,25,12,49,916.10
2015,04,25,12,50,923.90
2015,04,25,12,51,903.00
2015,04,25,12,52,898.00
2015,04,25,12,53,906.20
2015,04,25,12,54,944.30
2015,04,25,12,55,958.10
2015,04,25,12,56,972.60
2015,04,25,12,57,984.00
2015,04,25,12,58,984.00
2015,04,25,12,59,980.10
2015,04,25,13,00,933.60
2015,04,25,13,01,942.30
2015,04,25,13,02,950.90
2015,04,25,13,03,953.00
2015,04,25,13,04,956.70
2015,04,25,13,05,964.00
2015,04,25,13,06,965.00
2015,04,25,13,07,965.00
2015,04,25,13,08,965.00
2015,04,25,13,09,945.70
2015,04,25,13,10,912.60
2015,04,25,13,11,906.10
2015,04,25,13,12,901.00
2015,04,25,13,13,890.60
2015,04,25,13,14,883.60
2015,04,25,13,15,879.40
2015,04,25,13,16,873.60
2015,04,25,13,17,872.00
2015,04,25,13,18,869.10
2015,04,25,13,19,865.40
2015,04,25,13,20,867.80
2015,04,25,13,21,866.10
2015,04,25,13,22,862.30
2015,04,25,13,23,861.00
2015,04,25,13,24,863.40
2015,04,25,13,25,866.40
2015,04,25,13,26,869.60
2015,04,25,13,27,877.90
2015,04,25,13,28,867.80
2015,04,25,13,29,866.30
2015,04,25,13,30,866.00
2015,04,25,13,31,868.80
2015,04,25,13,32,870.00
2015,04,25,13,33,856.40
2015,04,25,13,34,873.80
2015,04,25,13,35,871.50
2015,04,25,13,36,869.30
2015,04,25,13,37,868.00
2015,04,25,13,38,869.20
2015,04,25,13,39,873.00
2015,04,25,13,40,876.50
2015,04,25,13,41,875.20
2015,04,25,13,42,876.60
2015,04,25,13,43,874.70
2015,04,25,13,44,872.10
2015,04,25,13,45,868.20
2015,04,25,13,46,861.90
2015,04,25,13,47,856.70
2015,04,25,13,48,852.70
2015,04,25,13,49,847.40
2015,04,25,13,50,848.30
2015,04,25,13,51,847.00
2015,04,25,13,52,846.40
2015,04,25,13,53,843.00
2015,04,25,13,54,842.00
2015,04,25,13,55,841.80
2015,04,25,13,56,840.00
2015,04,25,13,57,840.00
2015,04,25,13,58,840.00
2015,04,25,13,59,840.00
2015,04,25,14,00,840.00
2015,04,25,14,01,838.30
2015,04,25,14,02,837.90
2015,04,25,14,03,837.20
2015,04,25,14,04,837.70
2015,04,25,14,05,836.00
2015,04,25,14,06,835.00
2015,04,25,14,07,831.30
2015,04,25,14,08,830.90
2015,04,25,14,09,830.00
2015,04,25,14,10,829.50
2015,04,25,14,11,828.00
2015,04,25,14,12,828.00
2015,04,25,14,13,828.00
2015,04,25,14,14,828.00
2015,04,25,14,15,828.00
2015,04,25,14,16,827.70
2015,04,25,14,17,824.40
2015,04,25,14,18,824.30
2015,04,25,14,19,820.00
2015,04,25,14,20,819.00
2015,04,25,14,21,816.80
2015,04,25,14,22,818.50
2015,04,25,14,23,820.60
2015,04,25,14,24,817.00
2015,04,25,14,25,816.70
2015,04,25,14,26,815.00
2015,04,25,14,27,812.80
2015,04,25,14,28,813.50
2015,04,25,14,29,814.00
2015,04,25,14,30,810.00
2015,04,25,14,31,809.00
2015,04,25,14,32,809.00
2015,04,25,14,33,808.00
2015,04,25,14,34,805.80
2015,04,25,14,35,803.50
2015,04,25,14,36,803.00
2015,04,25,14,37,802.00
2015,04,25,14,38,801.10
2015,04,25,14,39,798.00
2015,04,25,14,40,798.00
2015,04,25,14,41,796.80
2015,04,25,14,42,795.30
2015,04,25,14,43,795.00
2015,04,25,14,44,794.80
2015,04,25,14,45,793.00
2015,04,25,14,46,793.00
2015,04,25,14,47,791.10
2015,04,25,14,48,789.00
2015,04,25,14,49,786.80
2015,04,25,14,50,784.30
2015,04,25,14,51,783.80
2015,04,25,14,52,782.00
2015,04,25,14,53,781.30
2015,04,25,14,54,779.50
2015,04,25,14,55,779.00
2015,04,25,14,56,777.60
2015,04,25,14,57,777.00
2015,04,25,14,58,775.10
2015,04,25,14,59,774.60
2015,04,25,15,00,772.70
2015,04,25,15,01,772.00
2015,04,25,15,02,770.80
2015,04,25,15,03,768.50
2015,04,25,15,04,768.00
2015,04,25,15,05,765.10
2015,04,25,15,06,764.60
2015,04,25,15,07,763.00
2015,04,25,15,08,761.10
2015,04,25,15,09,758.40
2015,04,25,15,10,756.50
2015,04,25,15,11,756.00
2015,04,25,15,12,754.10
2015,04,25,15,13,753.60
2015,04,25,15,14,752.00
2015,04,25,15,15,750.60
2015,04,25,15,16,749.00
2015,04,25,15,17,746.20
2015,04,25,15,18,745.00
2015,04,25,15,19,743.60
2015,04,25,15,20,740.00
2015,04,25,15,21,739.30
2015,04,25,15,22,737.50
2015,04,25,15,23,735.80
2015,04,25,15,24,735.00
2015,04,25,15,25,731.60
2015,04,25,15,26,730.80
2015,04,25,15,27,728.30
2015,04,25,15,28,726.70
2015,04,25,15,29,726.10
2015,04,25,15,30,722.80
2015,04,25,15,31,722.00
2015,04,25,15,32,721.20
2015,04,25,15,33,720.40
2015,04,25,15,34,715.50
2015,04,25,15,35,716.00
2015,04,25,15,36,713.00
2015,04,25,15,37,713.20
2015,04,25,15,38,711.00
2015,04,25,15,39,707.50
2015,04,25,15,40,705.10
2015,04,25,15,41,704.60
2015,04,25,15,42,702.30
2015,04,25,15,43,701.00
2015,04,25,15,44,699.20
2015,04,25,15,45,696.50
2015,04,25,15,46,696.00
2015,04,25,15,47,693.70
2015,04,25,15,48,690.60
2015,04,25,15,49,688.30
2015,04,25,15,50,687.00
2015,04,25,15,51,686.40
2015,04,25,15,52,683.20
2015,04,25,15,53,682.00
2015,04,25,15,54,679.10
2015,04,25,15,55,678.10
2015,04,25,15,56,674.30
2015,04,25,15,57,673.90
2015,04,25,15,58,672.00
2015,04,25,15,59,668.50
2015,04,25,16,00,666.30
2015,04,25,16,01,663.10
2015,04,25,16,02,662.10
2015,04,25,16,03,658.30
2015,04,25,16,04,656.50
2015,04,25,16,05,654.80
2015,04,25,16,06,652.60
2015,04,25,16,07,650.30
2015,04,25,16,08,648.80
2015,04,25,16,09,646.50
2015,04,25,16,10,644.30
2015,04,25,16,11,642.60
2015,04,25,16,12,640.80
2015,04,25,16,13,636.30
2015,04,25,16,14,635.00
2015,04,25,16,15,632.90
2015,04,25,16,16,630.60
2015,04,25,16,17,628.00
2015,04,25,16,18,625.00
2015,04,25,16,19,624.00
2015,04,25,16,20,621.80
2015,04,25,16,21,619.30
2015,04,25,16,22,616.90
2015,04,25,16,23,614.30
2015,04,25,16,24,612.00
2015,04,25,16,25,609.10
2015,04,25,16,26,605.40
2015,04,25,16,27,603.50
2015,04,25,16,28,603.00
2015,04,25,16,29,598.00
2015,04,25,16,30,595.10
2015,04,25,16,31,591.70
2015,04,25,16,32,590.00
2015,04,25,16,33,589.00
2015,04,25,16,34,586.00
2015,04,25,16,35,584.20
2015,04,25,16,36,581.60
2015,04,25,16,37,577.80
2015,04,25,16,38,576.30
2015,04,25,16,39,580.80
2015,04,25,16,40,576.90
2015,04,25,16,41,568.50
2015,04,25,16,42,566.30
2015,04,25,16,43,565.40
2015,04,25,16,44,561.00
2015,04,25,16,45,559.60
2015,04,25,16,46,556.00
2015,04,25,16,47,555.00
2015,04,25,16,48,552.80
2015,04,25,16,49,548.60
2015,04,25,16,50,546.60
2015,04,25,16,51,542.60
2015,04,25,16,52,543.30
2015,04,25,16,53,542.20
2015,04,25,16,54,534.80
2015,04,25,16,55,531.80
2015,04,25,16,56,529.30
2015,04,25,16,57,527.00
2015,04,25,16,58,525.10
2015,04,25,16,59,522.00
2015,04,25,17,00,520.60
2015,04,25,17,01,517.80
2015,04,25,17,02,514.20
2015,04,25,17,03,512.10
2015,04,25,17,04,509.90
2015,04,25,17,05,507.10
2015,04,25,17,06,503.60
2015,04,25,17,07,501.20
2015,04,25,17,08,499.00
2015,04,25,17,09,496.90
2015,04,25,17,10,494.30
2015,04,25,17,11,490.10
2015,04,25,17,12,488.10